TimeMDT,TemperatureF,Dew PointF,Humidity,Sea Level PressureIn,VisibilityMPH,Wind Direction,Wind SpeedMPH,Gust SpeedMPH,PrecipitationIn,Events,Conditions,WindDirDegrees,DateUTC
12:53 AM,55.0,28.0,35,29.80,10.0,SE,8.1,-,N/A,,Clear,140,2012-10-12 06:53:00
1:53 AM,52.0,28.0,40,29.79,10.0,Calm,Calm,-,N/A,,Clear,0,2012-10-12 07:53:00
2:53 AM,52.0,28.0,40,29.80,10.0,SE,5.8,-,N/A,,Clear,140,2012-10-12 08:53:00
3:53 AM,52.0,28.0,40,29.80,10.0,SE,5.8,-,N/A,,Clear,140,2012-10-12 09:53:00
4:53 AM,53.1,26.1,35,29.80,10.0,SSE,8.1,-,N/A,,Clear,150,2012-10-12 10:53:00
5:53 AM,50.0,27.0,41,29.80,10.0,Calm,Calm,-,N/A,,Clear,0,2012-10-12 11:53:00
6:53 AM,48.9,28.0,44,29.83,10.0,Calm,Calm,-,N/A,,Clear,0,2012-10-12 12:53:00
7:53 AM,48.2,28.4,46,29.86,10.0,SE,3.5,-,N/A,,Clear,130,2012-10-12 13:53:00
8:53 AM,52.0,27.0,38,29.85,10.0,Calm,Calm,-,N/A,,Clear,0,2012-10-12 14:53:00
9:53 AM,57.2,26.6,31,29.89,10.0,Calm,Calm,-,N/A,,Clear,0,2012-10-12 15:53:00
10:53 AM,62.6,32.0,32,29.89,10.0,Calm,Calm,-,N/A,,Clear,0,2012-10-12 16:53:00
11:53 AM,64.9,32.0,29,29.85,10.0,North,4.6,-,N/A,,Clear,350,2012-10-12 17:53:00
12:53 PM,69.1,30.0,23,29.83,10.0,NNW,4.6,-,N/A,,Clear,340,2012-10-12 18:53:00
1:53 PM,72.0,30.0,21,29.80,10.0,NW,4.6,-,N/A,,Clear,320,2012-10-12 19:53:00
2:53 PM,73.9,30.0,20,29.78,10.0,WNW,5.8,-,N/A,,Clear,290,2012-10-12 20:53:00
3:53 PM,75.9,28.9,18,29.76,10.0,NW,6.9,-,N/A,,Clear,320,2012-10-12 21:53:00
4:53 PM,77.0,26.1,15,29.75,10.0,NNW,9.2,-,N/A,,Clear,330,2012-10-12 22:53:00
5:53 PM,75.9,28.9,18,29.76,10.0,NNW,6.9,-,N/A,,Clear,340,2012-10-12 23:53:00
6:53 PM,73.0,30.9,21,29.76,9.0,Calm,Calm,-,N/A,,Clear,0,2012-10-13 00:53:00
7:53 PM,68.0,30.2,24,29.83,10.0,Calm,Calm,-,N/A,,Clear,0,2012-10-13 01:53:00
8:53 PM,64.0,32.0,30,29.83,10.0,WNW,6.9,-,N/A,,Clear,290,2012-10-13 02:53:00
9:53 PM,57.9,32.0,37,29.86,10.0,Calm,Calm,-,N/A,,Clear,0,2012-10-13 03:53:00
10:53 PM,60.1,33.1,36,29.87,10.0,North,5.8,-,N/A,,Partly Cloudy,360,2012-10-13 04:53:00
11:53 PM,60.1,32.0,35,29.89,10.0,WNW,5.8,-,N/A,,Clear,290,2012-10-13 05:53:00